VOE5LG LFKB-LFRS

Flight info

Callsign VOE5LG
Flight time N/A
Altitude 30000
Route AKUTI UM616 PIGOS DCT BODRU/N0439F360 DCT KOTIT DCT ETREK/N0443F380 DCT NOQAS DCT LERGA DCT VALKU/N0440F370 DCT PECNO DCT LMG/N0443F380 DCT MANAK
Aircraft A320/M-SDE3FGHIRWY/LB1

Departure

Time N/A
Airport Bastia-Poretta International airport (LFKB)

Arrival

Time 2026-04-30 19:23
Airport Nantes Atlantique Airport (LFRS)
Time Latitude Longitude Altitude Speed Heading
2026-04-30 19:04 46.11178 -0.41979 26498 ft 386 kts 286°
2026-04-30 19:04 46.12626 -0.49331 25608 ft 382 kts 286°
2026-04-30 19:05 46.14010 -0.56394 24736 ft 379 kts 286°
2026-04-30 19:05 46.15439 -0.63698 23803 ft 377 kts 286°
2026-04-30 19:06 46.16854 -0.70979 22774 ft 375 kts 285°
2026-04-30 19:06 46.17556 -0.74594 22313 ft 373 kts 285°
2026-04-30 19:06 46.18935 -0.81723 21373 ft 370 kts 285°
2026-04-30 19:07 46.20302 -0.88864 20436 ft 368 kts 285°
2026-04-30 19:07 46.21197 -0.92268 19971 ft 367 kts 298°
2026-04-30 19:08 46.24445 -0.97790 19055 ft 364 kts 322°
2026-04-30 19:08 46.28411 -1.02348 18080 ft 364 kts 322°
2026-04-30 19:08 46.30386 -1.04632 17623 ft 362 kts 322°
2026-04-30 19:09 46.34294 -1.09167 16719 ft 359 kts 321°
2026-04-30 19:09 46.36241 -1.11431 16266 ft 358 kts 321°
2026-04-30 19:09 46.38116 -1.13616 15841 ft 356 kts 321°
2026-04-30 19:10 46.41966 -1.18103 14956 ft 354 kts 321°
2026-04-30 19:10 46.45799 -1.22576 14067 ft 353 kts 321°
2026-04-30 19:11 46.47709 -1.24809 13596 ft 352 kts 321°
2026-04-30 19:11 46.51494 -1.29242 12687 ft 347 kts 321°
2026-04-30 19:11 46.53367 -1.31437 12244 ft 344 kts 321°
2026-04-30 19:12 46.55222 -1.33608 11787 ft 342 kts 321°
2026-04-30 19:12 46.56988 -1.35675 11354 ft 340 kts 321°
2026-04-30 19:12 46.58861 -1.37818 10904 ft 338 kts 326°
2026-04-30 19:13 46.62853 -1.41092 10509 ft 317 kts 328°
2026-04-30 19:13 46.66413 -1.44523 10039 ft 303 kts 325°
2026-04-30 19:13 46.68165 -1.46259 9825 ft 300 kts 326°
2026-04-30 19:14 46.68726 -1.46810 9658 ft 301 kts 326°
2026-04-30 19:14 46.69681 -1.47737 9389 ft 302 kts 326°
2026-04-30 19:14 46.71423 -1.49411 8978 ft 300 kts 326°
2026-04-30 19:14 46.73172 -1.51078 8581 ft 298 kts 326°
2026-04-30 19:15 46.74899 -1.52709 8208 ft 295 kts 327°
2026-04-30 19:15 46.78334 -1.55933 7421 ft 291 kts 326°
2026-04-30 19:15 46.80030 -1.57525 7034 ft 288 kts 326°
2026-04-30 19:16 46.81707 -1.59101 6391 ft 285 kts 326°
2026-04-30 19:16 46.83364 -1.60659 5682 ft 282 kts 326°
2026-04-30 19:16 46.86639 -1.63746 4474 ft 279 kts 325°
2026-04-30 19:17 46.88266 -1.65280 3977 ft 280 kts 325°
2026-04-30 19:17 46.91462 -1.68306 3483 ft 262 kts 326°
2026-04-30 19:17 46.92952 -1.69717 3361 ft 249 kts 325°
2026-04-30 19:18 46.95269 -1.71905 3184 ft 229 kts 325°
2026-04-30 19:18 46.97052 -1.73429 3047 ft 217 kts 341°
2026-04-30 19:18 46.98512 -1.73602 2994 ft 208 kts 12°
2026-04-30 19:19 46.99843 -1.72826 3004 ft 206 kts 28°
2026-04-30 19:19 47.00668 -1.72198 3009 ft 196 kts 28°
2026-04-30 19:19 47.03412 -1.70113 2453 ft 185 kts 28°
2026-04-30 19:20 47.04516 -1.69278 2223 ft 171 kts 28°
2026-04-30 19:20 47.05535 -1.68505 2018 ft 159 kts 28°
2026-04-30 19:20 47.07442 -1.67068 1546 ft 152 kts 27°
2026-04-30 19:21 47.08366 -1.66359 1346 ft 150 kts 28°
2026-04-30 19:21 47.10206 -1.64966 968 ft 147 kts 25°
2026-04-30 19:22 47.11998 -1.63608 572 ft 144 kts 27°
2026-04-30 19:22 47.14646 -1.61588 94 ft 132 kts 27°
2026-04-30 19:23 47.15672 -1.60736 85 ft 9 kts 109°
2026-04-30 19:24 47.15632 -1.60631 89 ft 6 kts 118°
2026-04-30 19:24 47.15649 -1.60553 92 ft 9 kts 39°
2026-04-30 19:24 47.15724 -1.60447 90 ft 9 kts 97°
2026-04-30 19:25 47.15701 -1.60285 90 ft 2 kts 43°
2026-04-30 19:26 47.15712 -1.60270 91 ft 0 kts 44°